Location: Westminster
(33.3626°N, 96.4619°W)
Time: 20:21:27
(UTC+00:00)

Cosmos 1656 Rocket - Pass Details

Date: 03 December 2021
Orbit: 794 x 848 km, 71.1° (Epoch: 26 January)

Event Time Altitude Azimuth Distance (km) Brightness Sun altitude
Rises 12:19:44 0° 229° (SW) 3,282 6.5 -11.2°
Reaches altitude 10° 12:22:29 10° 241° (WSW) 2,355 5.6 -10.7°
Maximum altitude 12:26:58 27° 298° (WNW) 1,501 4.4 -9.8°
Drops below altitude 10° 12:31:29 10° 355° (N) 2,373 5.8 -8.9°
Sets 12:34:17 0° 8° (N) 3,312 6.7 -8.3°
